Weather in Harare

Zimbabwe     17°49′45″S   31°03′07″E
temp.,
°C
wind,
m/s
gust,
m/s
humid.,
%
clouds,
%
prec.,
mm/h
press.,
hPa
HPBL,
m
11 april, sun
sun1123:00+16e37630 0.0 1019238
02:00+14ese23690 0.0 101887
05:00+13ese25740 0.0 1019135
08:00+18e35540 0.0 1020377
11:00+24ene46350 0.0 10181796
14:00+26ne45301 0.0 10152522
17:00+23ne45390 0.0 10161254
20:00+18e376130 0.0 1019356
12 april, mon
mon1223:00+18e37604 0.0 1020304
02:00+15se13700 0.0 1019104
05:00+14se25760 0.0 1020147
08:00+19ese48540 0.0 1021501
11:00+25e44300 0.0 10191806
14:00+27ene34304 0.0 10152802
17:00+24e3438100 0.0 10161025
20:00+20ese37440 0.0 1020475
13 april, tue
tue1323:00+16ese35580 0.0 1021152
02:00+15ese37670 0.0 1020246
05:00+13se412730 0.0 1021365
08:00+17ese510470 0.0 1021513
11:00+24e34250 0.0 10191560
14:00+27ene33200 0.0 10162394
17:00+24ne35300 0.0 1016858
20:00+19ese410447 0.0 1020424
14 april, wed
wed1423:00+16ese4105210 0.0 1021353
02:00+15ese513560 0.0 1020443
05:00+14se412715 0.0 1020398
08:00+18ese513543 0.0 1021812
11:00+25e57260 0.0 10182013
14:00+27e45220 0.0 10152771
17:00+24ese463088 0.0 10151536
20:00+19e24423 0.0 1018153
15 april, thu
thu1523:00+16e24510 0.0 1019161
02:00+15ese37690 0.0 1018200
05:00+13ese26730 0.0 1019174
08:00+18ese48510 0.0 1019632
11:00+24ese45230 0.0 10171840
14:00+27e341876 0.0 10132641
17:00+24ene35283 0.0 10141008
20:00+18ese36370 0.0 1017188